#timestamp,LO_Frequency,Hit,StdDev 
1560110415.2,286047000.9,N
1560110435.1,286047000.1,N
1560110436.0,286047000.1,N
1560110455.8,286046999.7,N
1560110475.6,286046999.7,N
1560110495.5,286047003.8,N
1560110515.3,286047003.5,N
1560110535.2,286047001.7,N
1560110555.9,286047003.5,N
1560110575.7,286047004.3,N
1560110595.6,286047002.8,N
1560110615.4,286047002.7,N
1560110635.2,286047001.9,N
1560110655.1,286047002.3,N
1560110656.0,286047002.3,N
1560110675.8,286047001.6,N
1560110695.7,286047003.9,N
1560110715.5,286047004.3,N
1560110735.3,286047005.6,Y
1560110755.2,286046999.9,P
1560110775.0,286047000.4,N
1560110775.9,286047000.4,N
1560110795.8,286047000.5,N
1560110815.6,286047000.6,N
1560110835.4,286047001.0,N
1560110855.3,286047001.1,N
1560110875.1,286047000.3,N
1560110895.8,286046999.3,N
1560110915.7,286046998.8,N
1560110935.5,286046999.1,N
1560110955.3,286047001.2,N
1560110975.2,286047001.1,N
1560110995.0,286046999.9,N
1560110995.9,286046999.9,N
1560111015.8,286047002.6,Y
1560111035.6,286047002.5,P
1560111055.4,286047002.4,N
1560111075.3,286046999.8,N
1560111095.1,286047000.6,N
1560111115.9,286046998.2,N
1560111135.7,286047000.9,N
1560111155.5,286047002.4,N
1560111175.4,286046999.7,N
1560111195.2,286046999.8,N
1560111215.0,286047001.8,N
1560111215.9,286047001.8,N
1560111235.8,286047005.9,Y
1560111255.6,286047002.4,P
1560111275.5,286047001.2,N
1560111295.3,286047000.0,N
1560111315.1,286047002.2,N
1560111335.9,286047003.7,Y
1560111355.7,286047002.5,P
1560111375.5,286047004.3,P
1560111395.4,286047004.2,P
1560111415.2,286047005.4,Y
1560111435.1,286047000.6,P
1560111436.0,286047000.6,N
1560111455.8,286046998.3,N
1560111475.6,286046998.5,N
1560111495.5,286046998.9,N
1560111515.3,286046998.9,N
1560111535.1,286046997.1,N
1560111555.9,286046995.0,N
1560111575.7,286046997.5,N
1560111595.6,286046998.0,N
1560111615.4,286046997.9,N
1560111635.2,286046997.5,N
1560111655.1,286046997.9,N
1560111656.0,286046997.9,N
1560111675.8,286046995.2,N
1560111695.7,286046995.7,N
1560111715.5,286046996.4,N
1560111735.3,286046993.8,Y
1560111755.2,286046997.7,P
1560111775.0,286046997.7,P
1560111775.9,286046997.7,P
1560111795.7,286046998.0,Y
1560111815.6,286047001.1,P
1560111835.4,286046998.6,N
1560111855.3,286046998.5,N
1560111875.1,286046999.2,N
1560111876.0,286046999.2,N
1560111895.8,286046999.5,N
1560111915.7,286046996.6,Y
1560111935.5,286046999.3,P
1560111955.4,286046998.3,P
1560111975.2,286046999.4,N
1560111995.0,286046999.4,N
1560111995.9,286046999.4,N
1560112015.8,286046999.4,N
1560112035.6,286046998.5,Y
1560112055.4,286047000.8,P
1560112075.3,286047001.1,N
1560112095.1,286046998.7,N
1560112115.9,286046998.1,N
1560112135.7,286046996.9,N
1560112155.5,286046997.6,N
1560112175.4,286046996.7,N
1560112195.2,286046996.7,N
1560112215.0,286046998.6,N
1560112215.9,286046998.6,N
1560112235.8,286047001.0,N
1560112255.6,286047001.0,N
1560112275.5,286047000.2,N
1560112295.3,286047000.3,N
1560112315.1,286047000.0,N
1560112335.9,286047000.2,N
1560112355.7,286047000.8,N
1560112375.5,286046998.2,N
1560112395.4,286046998.3,N
1560112415.2,286046999.1,N
1560112435.0,286047001.0,N
1560112436.0,286047001.0,N
1560112455.8,286046999.8,N
1560112475.6,286046998.7,N
1560112495.5,286046998.6,N
1560112515.3,286047001.2,N
1560112535.1,286046998.7,N
1560112555.9,286047001.1,N
1560112575.7,286047001.1,N
1560112595.5,286047001.0,N
1560112615.4,286047000.8,N
1560112635.2,286046996.7,N
1560112655.1,286046997.9,N
1560112656.0,286046997.9,N
1560112675.8,286046997.2,N
1560112695.6,286046998.4,N
1560112715.5,286046998.4,N
1560112735.3,286046996.8,N
1560112755.1,286046998.3,N
1560112775.9,286046999.6,N
1560112795.7,286046999.1,N
1560112815.6,286046994.9,Y
1560112835.4,286046997.3,P
1560112855.2,286046997.6,N
1560112875.1,286047000.7,N
1560112876.0,286047000.7,N
1560112895.8,286046999.3,N
1560112915.6,286046999.5,N
1560112935.5,286046998.1,N
1560112955.3,286047000.2,N
1560112975.2,286046999.4,N
1560112995.9,286046998.7,N
1560113015.7,286046998.3,N
1560113035.6,286046998.8,N
1560113055.4,286046998.1,N
1560113075.2,286046999.7,N
1560113095.1,286047000.1,N
1560113096.0,286047000.1,N
1560113115.8,286046998.3,N
1560113135.7,286046999.4,N
1560113155.5,286046997.4,N
1560113175.3,286046998.0,N
1560113195.2,286046997.4,N
1560113215.0,286046996.6,Y
1560113215.9,286046996.6,P
1560113235.8,286047000.9,N
1560113255.6,286046998.8,N
1560113275.4,286046997.3,N
1560113295.3,286046996.9,N
1560113315.1,286046999.6,N
1560113316.0,286046999.6,N
1560113335.8,286046998.2,N
1560113355.7,286046998.3,N
1560113375.5,286047001.1,N
1560113395.3,286047000.9,N
1560113415.2,286047002.3,N
1560113435.0,286047002.4,N
1560113435.9,286047002.4,N
1560113455.8,286047000.4,N
1560113475.6,286047000.9,N
1560113495.4,286046998.6,N
1560113515.3,286046999.7,N
1560113535.1,286047000.2,N
1560113555.8,286047001.7,N
1560113575.7,286047003.9,N
1560113595.5,286047002.3,N
1560113615.4,286047001.9,N
1560113635.2,286047004.4,N
1560113655.0,286047002.8,N
1560113655.9,286047002.8,N
1560113675.8,286047000.1,N
1560113695.6,286047000.3,N
1560113715.5,286047000.5,N
1560113735.3,286046998.4,N
1560113755.1,286046999.7,N
1560113775.9,286047002.3,N
1560113795.7,286047002.8,N
1560113815.5,286046999.8,N
1560113835.4,286047000.6,N
1560113855.2,286046998.5,N
1560113875.1,286047001.1,N
1560113876.0,286047001.1,N
1560113895.8,286047004.0,N
1560113915.6,286047003.5,N
1560113935.5,286047001.7,N
1560113955.3,286047001.9,N
1560113975.1,286047001.6,N
1560113995.9,286047003.7,N
